Snowfall_Accumulation
0.0 0.0 0.0 0.0 0.0 0.0 0.0 0.0 0.1 0.2 0.5 0.5 0.3 0.1 0.0 0.0 0.0 0.0 0.0 0.0 0.0 0.0 0.0 0.0 0.0 0.0 0.2 0.0 0.0 0.0 0.0 0.0 0.0 0.0 0.0 0.0 0.0 0.0 0.0 0.0 0.0 0.0 0.0
0.0 0.0 0.0 0.0 0.0 0.0 0.0 0.1 0.2 0.4 0.5 1.0 0.8 0.5 0.1 0.0 0.0 0.0 0.0 0.0 0.0 0.3 0.5 0.5 1.3 0.4 1.1 0.4 0.1 0.0 0.0 0.0 0.0 0.3 0.0 0.0 0.0 0.0 0.0 0.0 0.0 0.0 0.0
0.0 0.0 0.0 0.0 0.0 0.0 0.2 0.3 0.5 0.6 0.8 0.8 0.9 0.8 0.5 0.1 0.0 0.0 0.0 0.0 0.3 0.6 0.9 1.1 0.9 0.8 1.5 1.3 1.4 1.5 0.7 0.1 0.1 0.4 2.2 0.8 0.7 0.3 0.2 0.0 0.0 0.0 0.0
0.0 0.0 0.0 0.0 0.0 0.1 0.3 0.6 0.7 0.7 0.5 0.4 0.4 0.6 0.5 0.1 0.1 0.0 0.0 0.0 0.1 0.3 0.4 0.7 0.9 0.8 0.9 0.7 0.6 0.9 1.0 0.7 0.6 0.6 0.9 1.0 0.6 0.5 0.2 0.3 0.0 0.0 0.0
0.0 0.0 0.0 0.0 0.0 0.1 0.2 0.3 0.4 0.4 0.6 0.5 0.3 0.5 0.4 0.4 0.2 0.2 0.1 0.2 0.2 0.2 0.4 0.2 0.4 nan nan nan 0.3 0.3 0.5 1.0 1.0 1.0 1.0 0.8 0.7 0.7 0.3 0.1 0.0 0.0 0.0
0.0 0.0 0.0 0.0 0.1 0.2 0.4 0.5 0.5 0.3 0.5 1.0 1.4 1.5 1.5 0.9 nan nan 0.1 0.2 0.1 0.1 0.1 0.1 0.1 0.2 0.2 nan nan nan nan 0.2 0.2 0.6 0.7 0.7 0.6 0.6 0.6 0.3 0.2 0.2 0.4
0.0 0.0 0.0 0.1 0.2 0.4 0.4 0.4 0.4 0.6 0.5 0.9 0.9 1.0 1.2 1.2 nan nan nan 0.0 0.0 0.0 0.0 0.0 0.1 0.1 nan 0.0 nan nan nan nan 0.0 0.0 0.0 0.1 0.1 0.1 0.1 0.1 0.1 0.0 0.2
0.0 0.1 0.1 0.2 0.4 0.4 0.5 0.7 0.7 0.7 1.1 1.2 1.1 1.3 1.1 0.7 nan nan nan 0.0 0.0 0.0 0.0 0.0 0.0 0.0 0.0 0.0 0.0 0.0 0.0 0.0 0.0 0.0 0.0 0.0 0.0 0.0 0.0 0.0 0.0 0.0 0.1
0.1 0.3 0.3 0.2 0.4 0.4 0.6 0.6 0.5 1.0 1.2 1.0 0.7 0.2 0.1 0.1 nan nan 0.0 0.0 0.0 0.0 0.0 0.0 0.0 0.0 nan nan 0.0 0.0 0.0 0.0 nan nan nan nan nan nan nan 0.1 0.4 0.4 0.9
0.3 0.4 0.3 0.4 0.6 0.7 0.9 1.0 0.7 0.5 0.4 0.1 0.0 0.0 nan 0.0 nan nan nan 0.0 0.0 0.0 0.0 0.0 nan 0.0 nan nan 0.0 0.0 0.0 0.0 0.0 0.0 0.0 0.0 nan nan nan 0.0 0.2 0.6 0.8
0.3 0.3 0.3 0.3 0.4 0.3 0.3 0.2 0.2 0.0 0.0 0.0 0.0 0.0 0.0 0.0 0.0 nan nan 0.0 0.0 0.1 0.1 0.1 0.1 nan nan nan nan 0.0 0.1 0.0 0.0 0.1 0.1 0.4 0.2 0.1 0.2 0.1 0.0 0.2 0.7
0.3 0.4 0.7 0.7 0.5 0.3 0.3 0.2 0.1 0.0 0.0 0.0 0.0 0.2 0.2 0.0 nan nan nan nan nan 0.1 0.2 0.3 0.3 nan nan nan 0.2 nan nan 0.1 0.4 0.6 0.7 0.9 0.6 0.5 0.3 0.3 0.0 0.1 0.2
0.6 1.6 1.4 0.7 0.3 0.2 0.2 0.1 0.3 0.0 0.2 0.0 0.3 0.4 0.4 0.3 0.3 nan nan nan nan 0.4 0.5 0.6 nan nan nan 0.0 nan nan 0.2 1.1 1.9 3.0 2.0 1.2 0.5 0.3 0.1 0.1 0.0 0.0 0.0
2.7 1.6 0.4 0.4 0.2 0.1 0.3 0.3 0.3 0.4 0.5 0.7 0.8 1.0 0.7 0.7 0.5 0.5 0.8 0.6 nan 1.8 0.6 2.6 0.9 1.5 0.4 1.2 2.3 2.0 1.3 1.5 1.9 1.9 1.4 0.6 0.4 0.4 0.4 0.2 0.5 0.4 0.8
0.7 0.3 0.3 0.3 0.2 0.2 0.3 0.8 0.8 0.6 0.8 1.1 1.2 1.0 2.7 4.1 3.8 1.6 1.9 2.3 2.7 2.0 3.7 4.8 4.9 4.2 3.5 2.2 1.7 1.7 1.1 0.9 1.6 1.5 2.0 1.8 1.0 0.8 0.8 0.3 0.4 0.7 1.6
0.2 0.4 0.4 0.3 0.2 0.2 0.3 0.6 nan nan nan nan nan 1.1 4.4 nan nan nan nan nan nan nan 3.6 4.2 5.8 5.2 3.9 2.7 2.7 2.4 1.9 2.2 1.6 2.0 2.7 1.9 2.2 2.1 1.7 1.2 0.9 1.4 1.8
0.2 0.2 0.3 0.2 0.2 0.3 0.4 0.6 1.5 1.7 nan nan nan nan nan nan nan nan nan nan nan nan 5.2 5.3 6.2 6.1 4.3 2.7 2.8 3.0 3.8 2.5 1.8 3.3 4.0 4.1 4.2 3.5 4.3 2.3 1.9 1.5 1.5
0.2 0.0 0.4 0.6 0.7 1.1 1.3 1.3 1.3 2.1 3.2 2.1 nan nan nan nan nan nan nan nan 7.2 nan 3.5 4.6 5.4 4.8 4.0 4.1 4.0 4.0 3.8 4.7 5.3 5.4 5.4 5.5 6.0 5.1 5.4 4.1 2.6 3.1 2.0
0.1 0.3 0.3 0.3 0.4 0.3 0.5 0.6 0.6 0.7 0.7 0.8 0.6 0.3 0.1 nan nan nan nan 1.8 3.8 3.5 3.0 3.4 3.4 3.2 3.5 3.3 4.9 5.7 7.4 7.5 7.8 9.3 7.2 7.7 10.2 5.2 5.3 3.8 3.0 1.2 1.2
0.2 0.0 0.2 0.3 0.4 0.5 0.4 0.6 0.6 0.6 0.6 0.5 0.5 0.7 0.7 0.6 2.2 4.9 3.1 5.9 4.8 2.6 2.5 2.5 2.3 2.4 3.2 3.9 5.5 7.9 8.0 8.7 7.5 6.8 9.5 11.8 10.8 6.5 7.5 6.3 5.1 5.3 2.4
0.2 0.2 0.0 0.2 0.3 0.4 0.5 0.7 0.6 0.9 0.9 0.8 0.9 1.3 0.0 0.5 1.4 1.7 1.9 3.0 2.6 2.3 3.4 2.4 3.1 3.5 3.8 4.3 3.8 5.9 4.9 9.7 6.0 6.5 6.7 6.8 18.1 11.3 5.6 5.6 6.1 4.8 4.1
0.2 0.2 0.2 0.4 0.4 0.8 0.6 0.5 0.7 0.8 0.8 1.1 1.2 1.1 1.4 1.6 1.1 1.4 1.5 2.5 3.9 1.6 2.2 3.3 3.5 4.7 4.9 5.5 5.0 8.2 6.9 8.6 7.3 6.3 6.6 7.8 7.7 6.9 6.7 7.5 7.8 6.5 5.0
0.3 0.5 0.4 0.4 0.5 3.0 1.3 0.7 1.3 1.6 1.3 1.6 1.2 1.7 2.1 2.4 2.3 1.8 2.4 3.4 2.1 2.8 2.7 3.2 5.3 4.5 3.9 5.2 5.2 5.5 7.0 5.9 5.7 7.5 9.4 7.9 7.3 8.1 8.2 8.2 6.6 8.0 6.5
0.3 0.6 0.5 1.2 2.0 1.2 2.7 4.3 2.2 4.4 2.2 2.7 5.0 3.7 3.4 3.8 7.1 5.2 5.3 6.3 4.6 6.1 6.2 7.4 4.6 5.1 4.7 6.9 5.2 5.0 5.2 7.3 6.3 6.9 7.7 8.9 7.1 7.0 8.5 8.2 6.6 6.2 6.9
0.9 2.1 2.5 1.8 2.2 5.4 7.2 4.8 4.9 5.3 4.9 6.2 7.3 5.6 2.3 4.8 4.4 10.7 9.2 6.7 6.4 8.9 6.4 8.6 8.4 6.2 6.0 5.9 6.4 4.1 4.3 2.8 6.7 4.4 8.5 7.1 8.3 7.0 7.7 7.5 6.8 6.2 5.9
0.9 1.2 2.3 2.6 3.3 5.5 6.0 9.7 9.9 7.6 8.3 8.7 9.0 9.1 7.1 5.9 5.8 10.9 8.7 8.4 8.5 8.3 7.7 9.9 9.5 7.7 6.0 5.4 4.5 5.8 4.8 3.8 8.9 4.7 11.1 8.1 9.0 7.8 7.1 6.3 5.5 6.2 4.1
Water_Equivalent
0.00 0.00 0.00 0.00 0.00 0.00 0.00 0.00 0.03 0.05 0.10 0.10 0.06 0.04 0.01 0.00 0.00 0.00 0.00 0.00 0.00 0.00 0.00 0.00 0.00 0.01 0.04 0.01 0.00 0.00 0.00 0.00 0.00 0.00 0.00 0.00 0.00 0.00 0.00 0.00 0.00 0.00 0.00
0.00 0.00 0.00 0.00 0.00 0.00 0.00 0.02 0.05 0.07 0.10 0.20 0.16 0.10 0.02 0.00 0.00 0.00 0.00 0.00 0.01 0.06 0.09 0.09 0.26 0.09 0.21 0.07 0.02 0.01 0.00 0.00 0.00 0.05 0.00 0.01 0.00 0.00 0.00 0.00 0.00 0.00 0.00
0.00 0.00 0.00 0.00 0.00 0.00 0.04 0.05 0.08 0.12 0.14 0.14 0.15 0.13 0.08 0.02 0.01 0.00 0.00 0.01 0.07 0.18 0.24 0.23 0.19 0.17 0.30 0.28 0.26 0.31 0.13 0.01 0.02 0.07 0.52 0.19 0.16 0.07 0.04 0.01 0.00 0.00 0.00
0.00 0.00 0.00 0.00 0.00 0.02 0.05 0.12 0.15 0.16 0.10 0.06 0.06 0.09 0.08 0.03 0.01 0.00 0.00 0.00 0.02 0.07 0.10 0.18 0.22 0.20 0.20 0.17 0.15 0.22 0.27 0.25 0.22 0.21 0.28 0.30 0.18 0.13 0.05 0.06 0.01 0.00 0.00
0.00 0.00 0.00 0.00 0.01 0.03 0.04 0.06 0.07 0.07 0.09 0.08 0.07 0.12 0.10 0.12 0.05 0.07 0.04 0.05 0.04 0.05 0.08 0.05 0.07 nan nan nan 0.05 0.05 0.07 0.16 0.18 0.21 0.22 0.20 0.21 0.18 0.09 0.04 0.00 0.00 0.00
0.00 0.00 0.00 0.00 0.02 0.04 0.10 0.10 0.09 0.07 0.11 0.22 0.29 0.30 0.30 0.19 nan nan 0.03 0.04 0.03 0.03 0.02 0.01 0.03 0.04 0.04 nan nan nan nan 0.02 0.03 0.12 0.14 0.12 0.08 0.08 0.09 0.06 0.05 0.08 0.13
0.00 0.00 0.00 0.01 0.04 0.08 0.09 0.08 0.09 0.13 0.11 0.19 0.18 0.21 0.24 0.22 nan nan nan 0.00 0.00 0.00 0.01 0.01 0.02 0.01 nan 0.01 nan nan nan nan 0.00 0.00 0.00 0.03 0.01 0.01 0.01 0.02 0.01 0.00 0.05
0.00 0.01 0.02 0.04 0.08 0.09 0.13 0.16 0.14 0.15 0.21 0.24 0.22 0.24 0.20 0.12 nan nan nan 0.00 0.00 0.00 0.00 0.00 0.00 0.00 0.00 0.00 0.00 0.00 0.00 0.00 0.00 0.00 0.00 0.00 0.00 0.00 0.00 0.00 0.00 0.00 0.04
0.02 0.06 0.06 0.05 0.09 0.10 0.13 0.11 0.11 0.20 0.24 0.22 0.14 0.03 0.01 0.01 nan nan 0.00 0.00 0.00 0.00 0.00 0.00 0.00 0.00 nan nan 0.00 0.01 0.01 0.00 nan nan nan nan nan nan nan 0.04 0.16 0.14 0.30
0.06 0.09 0.08 0.09 0.15 0.16 0.22 0.23 0.14 0.11 0.09 0.03 0.00 0.00 nan 0.00 nan nan nan 0.00 0.00 0.00 0.00 0.00 nan 0.00 nan nan 0.00 0.00 0.01 0.01 0.01 0.01 0.00 0.00 nan nan nan 0.00 0.07 0.20 0.25
0.06 0.06 0.06 0.06 0.08 0.07 0.07 0.05 0.03 0.00 0.00 0.00 0.00 0.00 0.00 0.00 0.00 nan nan 0.00 0.00 0.03 0.04 0.04 0.03 nan nan nan nan 0.00 0.01 0.00 0.01 0.04 0.06 0.16 0.07 0.04 0.07 0.05 0.01 0.08 0.20
0.07 0.09 0.15 0.20 0.14 0.08 0.09 0.03 0.02 0.01 0.00 0.00 0.00 0.07 0.09 0.00 nan nan nan nan nan 0.05 0.05 0.12 0.11 nan nan nan 0.08 nan nan 0.03 0.17 0.22 0.29 0.35 0.25 0.22 0.13 0.10 0.00 0.03 0.06
0.13 0.38 0.32 0.17 0.06 0.03 0.03 0.02 0.08 0.00 0.06 0.02 0.14 0.16 0.16 0.13 0.13 nan nan nan nan 0.17 0.18 0.24 nan nan nan 0.00 nan nan 0.05 0.45 0.76 1.08 0.71 0.45 0.19 0.10 0.02 0.04 0.00 0.00 0.00
0.72 0.40 0.10 0.07 0.04 0.02 0.09 0.10 0.12 0.15 0.21 0.26 0.29 0.38 0.27 0.28 0.21 0.21 0.34 0.23 nan 0.72 0.22 1.04 0.30 0.57 0.14 0.45 0.87 0.78 0.52 0.58 0.69 0.58 0.44 0.23 0.14 0.16 0.16 0.09 0.17 0.15 0.26
0.16 0.06 0.05 0.06 0.03 0.04 0.09 0.29 0.29 0.22 0.31 0.42 0.45 0.39 0.96 1.43 1.37 0.61 0.72 0.90 1.06 0.78 1.34 1.82 1.82 1.41 1.09 0.70 0.53 0.57 0.37 0.30 0.48 0.48 0.59 0.56 0.36 0.27 0.27 0.11 0.15 0.22 0.40
0.04 0.06 0.08 0.06 0.07 0.07 0.12 0.22 nan nan nan nan nan 0.45 1.74 nan nan nan nan nan nan nan 1.14 1.24 1.64 1.55 1.03 0.70 0.69 0.61 0.51 0.66 0.47 0.57 0.80 0.57 0.61 0.59 0.49 0.35 0.28 0.35 0.42
0.04 0.02 0.09 0.05 0.09 0.13 0.16 0.24 0.54 0.69 nan nan nan nan nan nan nan nan nan nan nan nan 1.52 1.47 1.78 1.87 1.16 0.69 0.68 0.70 0.85 0.69 0.43 0.83 0.99 1.13 1.16 0.96 1.18 0.63 0.52 0.40 0.39
0.03 0.00 0.17 0.25 0.29 0.44 0.52 0.53 0.51 0.80 1.13 0.76 nan nan nan nan nan nan nan nan 1.76 nan 0.94 1.16 1.44 1.30 1.02 0.95 0.94 0.92 0.86 1.13 1.24 1.28 1.36 1.51 1.69 1.27 1.37 0.99 0.66 0.72 0.47
0.04 0.12 0.11 0.13 0.15 0.13 0.18 0.22 0.23 0.25 0.28 0.27 0.21 0.11 0.06 nan nan nan nan 0.48 0.83 0.76 0.68 0.75 0.82 0.72 0.82 0.77 1.26 1.47 1.88 1.80 1.94 2.52 1.85 2.06 3.17 1.18 1.36 0.97 0.75 0.34 0.29
0.06 0.01 0.07 0.13 0.16 0.19 0.17 0.22 0.21 0.21 0.19 0.17 0.17 0.19 0.20 0.17 0.62 1.41 0.88 1.71 1.21 0.57 0.54 0.50 0.49 0.49 0.65 0.77 1.30 2.22 2.07 2.17 1.71 1.60 2.54 3.47 3.19 1.59 1.72 1.51 1.38 1.21 0.58
0.09 0.09 0.00 0.09 0.13 0.15 0.19 0.22 0.20 0.27 0.29 0.23 0.29 0.43 0.00 0.17 0.39 0.46 0.47 0.76 0.59 0.47 0.72 0.47 0.60 0.73 0.78 0.89 0.66 1.18 0.87 2.58 1.20 1.32 1.34 1.46 5.59 2.35 1.24 1.22 1.32 1.03 0.79
0.08 0.09 0.10 0.14 0.13 0.26 0.21 0.17 0.23 0.25 0.23 0.30 0.34 0.32 0.46 0.53 0.33 0.38 0.40 0.75 1.27 0.39 0.41 0.57 0.60 0.69 0.69 0.74 0.76 1.98 1.49 2.12 1.73 1.39 1.34 1.55 1.46 1.44 1.33 1.50 1.60 1.44 1.05
0.10 0.18 0.14 0.13 0.16 0.97 0.41 0.21 0.37 0.50 0.38 0.50 0.35 0.44 0.52 0.73 0.69 0.49 0.69 1.21 0.55 0.72 0.66 0.61 1.14 0.79 0.68 0.94 0.89 0.81 1.14 1.01 1.01 1.30 1.70 1.63 1.27 1.41 1.85 1.61 1.36 1.67 1.44
0.11 0.23 0.17 0.38 0.58 0.32 0.77 1.22 0.61 1.46 0.58 0.75 1.53 1.08 0.91 1.10 2.47 1.71 1.85 2.34 1.42 1.95 1.98 2.09 0.83 0.70 0.68 1.74 1.05 0.85 0.71 1.11 0.95 1.06 1.16 1.59 1.23 1.38 1.61 1.54 1.36 1.33 1.53
0.33 0.68 0.78 0.48 0.58 1.54 2.11 1.37 1.30 1.50 1.37 1.80 2.18 1.58 0.51 1.28 1.11 3.14 2.48 1.73 1.58 2.52 1.46 1.98 1.71 1.11 1.17 1.07 1.10 0.50 0.66 0.91 1.17 1.44 1.41 0.99 1.29 1.20 1.42 1.44 1.57 1.34 1.32
0.27 0.37 0.63 0.68 0.85 1.51 1.56 2.51 2.54 2.02 2.10 2.38 2.45 2.53 1.78 1.27 1.22 2.56 1.81 1.73 1.65 1.61 1.48 1.83 1.76 1.38 1.09 1.02 0.74 1.81 1.57 1.27 1.68 1.55 2.04 1.40 1.69 1.56 1.50 1.34 1.25 1.48 0.91
SL_Ratio
nan nan nan nan nan nan nan 8.3 4.5 4.4 5.1 4.8 4.6 3.9 2.8 5.0 nan nan nan nan nan 5.0 5.5 3.8 4.5 5.4 5.7 5.5 nan nan nan nan nan nan nan nan nan nan nan nan nan nan nan
nan nan nan nan nan nan 5.0 5.2 5.3 5.3 5.0 5.1 5.1 5.3 5.2 5.7 10.0 nan nan 2.5 3.3 5.2 5.5 5.1 4.8 4.3 5.3 5.5 5.6 5.6 nan nan nan 5.6 nan 5.8 nan nan nan nan nan nan nan
nan nan nan nan nan 4.3 4.7 4.7 5.8 5.3 5.3 5.7 5.6 6.4 6.4 6.1 5.0 nan 5.0 4.7 4.0 3.5 3.7 4.8 4.9 4.7 5.2 4.8 5.5 4.9 5.1 4.6 3.7 5.5 4.2 4.1 4.6 4.7 4.9 4.7 nan nan nan
nan nan nan nan 5.7 5.0 5.4 5.2 4.9 4.6 5.4 6.7 6.5 6.6 5.8 4.5 3.8 0.0 nan 5.7 5.5 4.8 3.7 3.9 4.1 4.1 4.4 3.8 3.9 3.9 3.6 3.0 2.9 2.8 3.2 3.2 3.5 3.7 4.7 5.5 4.8 0.0 nan
nan nan 6.3 0.0 5.3 4.9 5.3 5.4 5.7 6.5 6.5 5.9 4.8 4.1 4.1 3.7 3.9 3.3 3.3 3.6 4.2 4.9 4.7 4.8 5.6 nan nan nan 6.2 6.6 6.3 6.2 5.8 4.9 4.7 3.9 3.7 3.7 3.7 2.8 3.0 3.3 0.0
nan 6.7 nan 5.0 5.1 5.5 4.7 4.4 5.7 4.3 4.2 4.4 4.7 5.1 5.0 4.6 nan nan 4.6 5.3 5.2 5.6 5.4 5.8 4.9 6.0 5.9 nan nan nan nan 7.1 7.5 5.0 5.0 5.9 7.7 7.5 6.8 5.5 3.1 2.5 2.8
nan nan 5.0 5.0 4.7 5.0 5.2 4.7 4.8 4.9 4.5 4.9 5.1 4.7 5.2 5.5 nan nan nan nan 2.7 6.0 5.3 6.8 6.3 5.5 nan 5.5 nan nan nan nan 5.0 5.0 8.2 4.4 6.6 7.2 6.9 7.4 7.3 7.5 3.0
6.7 5.1 5.0 4.5 4.6 4.6 4.3 4.4 5.0 5.0 5.2 5.0 5.0 5.2 5.9 6.0 nan nan nan nan nan nan 7.0 6.7 6.7 7.1 6.7 5.0 nan nan nan nan 0.0 nan 10.0 10.0 nan nan nan nan 10.0 0.0 2.5
4.7 4.7 4.5 4.4 4.7 4.3 4.8 5.1 4.7 5.0 5.0 4.9 5.3 5.3 6.1 6.9 nan nan nan nan nan 10.0 10.0 5.0 0.0 10.0 nan nan nan 2.4 2.2 2.0 nan nan nan nan nan nan nan 2.5 2.6 2.8 3.0
4.7 4.7 4.2 4.0 4.1 4.5 4.0 4.3 5.0 4.1 4.7 3.6 5.0 2.5 nan nan nan nan nan nan nan 5.0 0.0 6.7 nan 7.5 nan nan 10.0 6.7 2.8 2.9 2.4 2.5 5.0 nan nan nan nan nan 2.7 3.1 3.1
4.7 5.1 5.0 4.9 4.6 4.7 4.6 4.3 4.5 4.6 5.0 5.0 nan nan nan nan 10.0 nan nan 0.0 3.6 2.8 2.9 2.9 3.3 nan nan nan nan 8.0 6.7 2.7 2.7 2.5 2.5 2.5 2.5 2.5 2.5 2.5 2.5 2.8 3.4
4.7 4.8 4.6 3.8 3.3 3.1 3.8 5.1 5.1 5.2 5.6 5.0 4.0 2.5 2.5 nan nan nan nan nan nan 2.9 3.3 2.9 2.8 nan nan nan 2.5 nan nan 2.6 2.5 2.5 2.5 2.6 2.6 2.5 2.5 2.5 nan 2.5 2.5
4.5 4.4 4.3 4.1 3.9 4.9 5.5 5.9 3.4 nan 2.5 2.7 2.5 2.5 2.6 2.5 2.5 nan nan nan nan 2.5 2.5 2.5 nan nan nan 3.3 nan nan 3.0 2.5 2.5 2.8 2.9 2.7 2.6 2.5 2.5 2.5 nan nan 0.0
3.7 4.1 4.3 4.8 5.4 5.7 3.3 2.8 2.6 2.5 2.5 2.6 2.6 2.6 2.6 2.5 2.6 2.5 2.5 2.5 nan 2.5 2.6 2.5 3.0 2.6 3.0 2.7 2.6 2.5 2.5 2.6 2.8 3.3 3.2 2.7 2.6 2.6 2.7 2.6 2.7 2.8 3.2
4.5 4.9 5.4 5.6 5.6 4.5 3.5 2.7 2.6 2.7 2.6 2.6 2.7 2.6 2.8 2.8 2.8 2.7 2.6 2.6 2.5 2.5 2.8 2.6 2.7 3.0 3.2 3.1 3.1 3.0 2.9 2.8 3.4 3.1 3.3 3.3 2.9 2.8 2.8 2.6 3.0 3.3 4.1
5.8 5.8 5.0 4.4 3.1 2.8 2.6 2.5 nan nan nan nan nan 2.5 2.5 nan nan nan nan nan nan nan 3.2 3.3 3.6 3.3 3.7 3.8 3.9 3.9 3.8 3.4 3.5 3.6 3.4 3.3 3.7 3.6 3.5 3.3 3.3 3.9 4.2
6.3 6.2 4.0 3.0 2.5 2.5 2.5 2.6 2.8 2.5 nan nan nan nan nan nan nan nan nan nan nan nan 3.4 3.6 3.5 3.3 3.7 3.9 4.2 4.2 4.5 3.6 4.2 4.0 4.1 3.7 3.6 3.6 3.6 3.7 3.6 3.9 4.0
6.7 nan 2.7 2.5 2.5 2.5 2.5 2.5 2.5 2.6 2.9 2.7 nan nan nan nan nan nan nan nan 4.1 nan 3.7 4.0 3.8 3.7 3.9 4.3 4.2 4.3 4.3 4.1 4.2 4.2 3.9 3.6 3.6 4.0 3.9 4.1 3.9 4.2 4.2
3.1 2.8 2.5 2.5 2.5 2.5 2.5 2.5 2.6 2.6 2.7 2.8 2.8 3.0 2.5 nan nan nan nan 3.9 4.6 4.6 4.3 4.5 4.2 4.4 4.3 4.4 3.9 3.9 3.9 4.2 4.0 3.7 3.9 3.8 3.2 4.4 3.9 3.9 4.0 3.5 4.1
2.9 3.5 2.6 2.6 2.5 2.6 2.6 2.9 2.9 2.9 2.9 2.9 3.1 3.4 3.5 3.6 3.6 3.5 3.5 3.4 4.0 4.5 4.6 5.0 4.7 4.8 4.9 5.1 4.2 3.6 3.9 4.0 4.4 4.2 3.7 3.4 3.4 4.1 4.4 4.2 3.7 4.3 4.2
2.5 2.5 nan 2.5 2.6 2.7 2.8 3.0 3.1 3.2 3.2 3.3 3.2 3.0 2.5 3.2 3.7 3.8 4.1 3.9 4.4 4.9 4.7 5.2 5.1 4.8 4.9 4.8 5.8 5.0 5.7 3.8 5.0 4.9 5.0 4.6 3.2 4.8 4.5 4.6 4.6 4.7 5.2
2.5 2.5 2.6 2.6 2.7 3.1 3.0 2.9 3.1 3.3 3.5 3.6 3.4 3.4 3.0 3.0 3.5 3.8 3.8 3.4 3.0 4.1 5.4 5.7 5.9 6.7 7.0 7.3 6.6 4.1 4.7 4.1 4.2 4.5 5.0 5.0 5.3 4.8 5.0 5.0 4.9 4.5 4.8
2.6 2.6 2.8 2.9 2.9 3.0 3.2 3.2 3.5 3.3 3.5 3.2 3.6 3.9 4.0 3.3 3.2 3.7 3.5 2.8 3.7 3.9 4.1 5.3 4.6 5.8 5.7 5.5 5.8 6.8 6.1 5.8 5.6 5.7 5.5 4.9 5.8 5.8 4.4 5.1 4.9 4.8 4.5
2.6 2.6 3.0 3.2 3.5 3.9 3.6 3.5 3.6 3.0 3.8 3.6 3.2 3.4 3.7 3.5 2.9 3.0 2.9 2.7 3.2 3.1 3.2 3.5 5.5 7.4 6.9 3.9 5.0 5.9 7.3 6.5 6.7 6.5 6.6 5.6 5.8 5.1 5.3 5.3 4.9 4.7 4.5
2.8 3.1 3.3 3.7 3.7 3.5 3.4 3.5 3.8 3.5 3.6 3.4 3.3 3.5 4.4 3.7 4.0 3.4 3.7 3.9 4.1 3.5 4.4 4.3 4.9 5.5 5.1 5.5 5.8 8.1 6.5 3.0 5.8 3.0 6.0 7.2 6.4 5.8 5.5 5.2 4.3 4.6 4.5
3.1 3.2 3.6 3.7 3.9 3.6 3.9 3.9 3.9 3.8 3.9 3.7 3.7 3.6 4.0 4.6 4.8 4.3 4.8 4.9 5.1 5.2 5.2 5.4 5.4 5.6 5.5 5.3 6.2 3.2 3.0 3.0 5.3 3.0 5.4 5.8 5.3 5.0 4.7 4.7 4.4 4.2 4.5